Location: Unspecified
(0.0000°N, 0.0000°E)
Time: 08:25:03
(UTC+00:00)

deb DAPP - Pass Details

Date: 16 December 2025
Orbit: 606 x 945 km, 99.0° (Epoch: 14 January)

Event Time Altitude Azimuth Distance (km) Brightness Sun altitude
Rises 19:38:45 0° 183° (S) 3,194 ? -23.5°
Reaches altitude 10° 19:41:06 10° 191° (S) 2,320 ? -24.0°
Maximum altitude 19:45:50 38° 258° (WSW) 1,242 ? -25.1°
Drops below altitude 10° 19:50:57 10° 325° (NW) 2,510 ? -26.2°
Sets 19:53:35 0° 333° (NNW) 3,490 ? -26.8°
